Weather History for Sydney Airport, New South Wales

Change the Weather History Date:

Tuesday, June 25, 2013

  Actual Average Record
Temperature  
Mean Temperature 56 °F -  
Max Temperature 61 °F 62 °F - ()
Min Temperature 50 °F 44 °F - ()
Degree Days  
Heating Degree Days 10    
Growing Degree Days 6 (Base 50)    
Moisture  
Dew Point 52 °F    
Average Humidity 88    
Maximum Humidity 100    
Minimum Humidity 70    
Precipitation  
Precipitation 0.28 in 0.09 in - ()
Sea Level Pressure  
Sea Level Pressure 29.98 in    
Wind  
Wind Speed 8 mph ()    
Max Wind Speed 28 mph    
Max Gust Speed 36 mph    
Visibility 6.1 miles    
Events Fog , Rain    
T = Trace of Precipitation, MM = Missing Value Source: Averaged Metar Reports

Daily Weather History Graph

Daily Weather History Graph

Search for Another Location

Airport:

Trip Planner

Search our weather history database for the weather conditions in past years. The results will help you decide how hot, cold, wet, or windy it might be!

Date:

Astronomy

Jun. 25, 2013 Rise Set
Actual Time 7:01 AM AEST 4:54 PM AEST
Civil Twilight 6:33 AM AEST 5:22 PM AEST
Nautical Twilight 6:02 AM AEST 5:53 PM AEST
Astronomical Twilight 5:31 AM AEST 6:24 PM AEST
Moon 7:08 PM AEST (6/25) 8:08 AM AEST (6/25)
Length of Visible Light 10h 49m
Length of Day
9h 53m
Waning Gibbous, 96% of the Moon is Illuminated
Jun 25
Waning Gibbous
Jun 30
Last Quarter
Jul 8
New
Jul 16
First Quarter
Jul 23
Full

Hourly Weather History & Observations

Time (AEST) Temp. Dew Point Humidity Pressure Visibility Wind Dir Wind Speed Gust Speed Precip Events Conditions
12:00 AM 51 °F 49 °F 92% 29.95 in 4 mi NE 6.9 mph - - Rain Light Rain Showers
12:00 AM 51.8 °F 50.0 °F 94% 29.95 in 4.3 mi NE 6.9 mph - N/A Rain Light Rain Showers
12:30 AM 50.0 °F 50.0 °F 100% 29.95 in 6.2 mi NE 4.6 mph - N/A   Mostly Cloudy
1:00 AM 51 °F 49 °F 91% 29.96 in - NNE 3.5 mph - -  
1:00 AM 50.0 °F 50.0 °F 100% 29.95 in 6.2 mi NNE 3.5 mph - N/A   Mostly Cloudy
1:30 AM 51.8 °F 50.0 °F 94% 29.95 in 6.2 mi Calm Calm - N/A   Mostly Cloudy
2:00 AM 51.8 °F 50.0 °F 94% 29.95 in 6.2 mi Calm Calm - N/A   Mostly Cloudy
2:30 AM 50.0 °F 48.2 °F 94% 29.95 in 6.2 mi WSW 4.6 mph - N/A   Mostly Cloudy
3:00 AM 51 °F 49 °F 90% 29.95 in 6 mi West 4.6 mph - -   Mist
3:00 AM 50.0 °F 48.2 °F 94% 29.95 in 6.2 mi West 4.6 mph - N/A   Mostly Cloudy
3:30 AM 51.8 °F 50.0 °F 94% 29.95 in 6.2 mi West 1.2 mph - N/A   Mostly Cloudy
4:00 AM 51 °F 49 °F 91% 29.96 in - WNW 4.6 mph - -  
4:00 AM 50.0 °F 50.0 °F 100% 29.95 in 5.6 mi WNW 4.6 mph - N/A   Unknown
4:30 AM 50.0 °F 50.0 °F 100% 29.95 in 6.2 mi WNW 5.8 mph - N/A   Mostly Cloudy
5:00 AM 50.0 °F 50.0 °F 100% 29.95 in 5.6 mi West 5.8 mph - N/A   Mostly Cloudy
5:30 AM 51.8 °F 48.2 °F 88% 29.95 in 6.2 mi West 8.1 mph - N/A   Mostly Cloudy
6:00 AM 51 °F 49 °F 89% 29.97 in 12 mi West 8.1 mph - - Fog Light Fog
6:00 AM 51.8 °F 48.2 °F 88% 29.95 in 6.2 mi West 8.1 mph - N/A   Mostly Cloudy
6:30 AM 51.8 °F 48.2 °F 88% 29.98 in 6.2 mi West 6.9 mph - N/A   Mostly Cloudy
7:00 AM 52 °F 49 °F 84% 29.99 in - West 5.8 mph - -  
7:00 AM 51.8 °F 48.2 °F 88% 29.98 in 6.2 mi West 5.8 mph - N/A   Mostly Cloudy
7:30 AM 51.8 °F 50.0 °F 94% 29.98 in 5.6 mi NW 9.2 mph - N/A Fog Mostly Cloudy
8:00 AM 51.8 °F 50.0 °F 94% 29.98 in 5.0 mi NW 9.2 mph - N/A Fog , Rain Light Rain
8:27 AM 53.6 °F 50.0 °F 88% 29.98 in 5.6 mi NW 9.2 mph - N/A Fog , Rain Light Rain
8:30 AM 53.6 °F 50.0 °F 88% 29.98 in 4.3 mi NW 9.2 mph - N/A Fog , Rain Light Rain
8:43 AM 53.6 °F 51.8 °F 94% 30.01 in 3.7 mi NW 8.1 mph - N/A Rain Rain
9:00 AM 53 °F 51 °F 92% 30.01 in 4 mi NNW 6.9 mph - - Rain Rain
9:00 AM 53.6 °F 51.8 °F 94% 30.01 in 3.1 mi NNW 6.9 mph - N/A Rain Rain
9:30 AM 53.6 °F 51.8 °F 94% 30.01 in 3.1 mi WNW 6.9 mph - N/A Rain Light Rain
10:00 AM 53 °F 52 °F 95% 30.02 in - WNW 6.9 mph - -  
10:00 AM 53.6 °F 51.8 °F 94% 30.01 in 3.1 mi WNW 6.9 mph - N/A Rain Light Rain
10:30 AM 55.4 °F 53.6 °F 94% 30.01 in 3.1 mi SW 5.8 mph - N/A Fog , Rain Light Rain
10:48 AM 53.6 °F 53.6 °F 100% 30.01 in 3.7 mi West 6.9 mph - N/A Rain Light Rain
11:00 AM 55.4 °F 53.6 °F 94% 30.01 in 4.3 mi SW 8.1 mph - N/A Rain Light Rain
11:30 AM 55.4 °F 53.6 °F 94% 30.01 in 4.3 mi NNW 6.9 mph - N/A Rain Light Rain Showers
12:00 PM 56 °F 53 °F 86% 30.00 in 12 mi WNW 5.8 mph - -   Mostly Cloudy
12:00 PM 57.2 °F 53.6 °F 88% 29.98 in 5.0 mi WNW 5.8 mph - N/A   Mostly Cloudy
12:10 PM 55.4 °F 53.6 °F 94% 29.98 in 3.1 mi NW 6.9 mph - N/A Rain Light Rain Showers
12:30 PM 55.4 °F 51.8 °F 88% 29.98 in 3.1 mi NNE 6.9 mph - N/A Rain Rain
12:49 PM 55.4 °F 51.8 °F 88% 29.98 in 4.3 mi ENE 2.3 mph - N/A Rain Light Rain
1:00 PM 56 °F 53 °F 85% 29.99 in - Calm Calm - -  
1:00 PM 55.4 °F 53.6 °F 94% 29.98 in 5.6 mi Calm Calm - N/A Rain Light Rain Showers
1:30 PM 55.4 °F 53.6 °F 94% 29.98 in 6.2 mi WSW 8.1 mph - N/A Rain Light Rain Showers
2:00 PM 57.2 °F 53.6 °F 88% 29.95 in 6.2 mi SW 10.4 mph 21.9 mph N/A Rain Light Rain Showers
2:30 PM 57.2 °F 53.6 °F 88% 29.95 in 6.2 mi South 11.5 mph - N/A   Mostly Cloudy
3:00 PM 58 °F 51 °F 70% 29.97 in 16 mi SSE 13.8 mph - - Rain Light Rain Showers
3:00 PM 57.2 °F 51.8 °F 82% 29.95 in 6.2 mi SSE 13.8 mph - N/A   Mostly Cloudy
3:30 PM 59.0 °F 51.8 °F 77% 29.98 in 6.2 mi SSE 11.5 mph - N/A   Mostly Cloudy
4:00 PM 57 °F 53 °F 82% 29.98 in - South 15.0 mph - -  
4:00 PM 57.2 °F 53.6 °F 88% 29.98 in 6.2 mi South 15.0 mph - N/A Rain Light Rain Showers
4:30 PM 57.2 °F 53.6 °F 88% 29.95 in 6.2 mi SSW 15.0 mph - N/A   Mostly Cloudy
5:00 PM 57.2 °F 51.8 °F 82% 29.98 in 6.2 mi SSE 12.7 mph - N/A Rain Light Rain Showers
5:30 PM 57.2 °F 53.6 °F 88% 29.98 in 6.2 mi SSW 12.7 mph - N/A   Mostly Cloudy
6:00 PM 58 °F 54 °F 81% 29.99 in 16 mi South 16.1 mph - - Rain Light Rain Showers
6:00 PM 57.2 °F 53.6 °F 88% 29.98 in 6.2 mi South 16.1 mph - N/A Rain Light Rain Showers
6:30 PM 59.0 °F 53.6 °F 82% 29.98 in 6.2 mi South 18.4 mph - N/A Rain Light Rain Showers
7:00 PM 58 °F 55 °F 86% 29.99 in - South 17.3 mph - -  
7:00 PM 59.0 °F 55.4 °F 88% 29.98 in 6.2 mi South 17.3 mph - N/A Rain Light Rain Showers
7:30 PM 59.0 °F 55.4 °F 88% 29.98 in 6.2 mi South 15.0 mph - N/A   Mostly Cloudy
8:00 PM 59.0 °F 55.4 °F 88% 29.98 in 5.6 mi SSE 12.7 mph - N/A Rain Light Rain Showers
8:25 PM 60.8 °F 55.4 °F 82% 29.98 in 6.2 mi SE 26.5 mph - N/A   Mostly Cloudy
8:30 PM 60.8 °F 53.6 °F 77% 29.98 in 6.2 mi SE 24.2 mph - N/A Rain Light Rain Showers
9:00 PM 60 °F 55 °F 78% 30.00 in 12 mi SSE 24.2 mph - - Rain Light Rain Showers
9:00 PM 60.8 °F 55.4 °F 82% 29.98 in 6.2 mi SSE 24.2 mph - N/A Rain Light Rain Showers
9:30 PM 60.8 °F 53.6 °F 77% 29.98 in 5.6 mi SE 27.6 mph - N/A Rain Light Rain Showers
9:42 PM 60.8 °F 53.6 °F 77% 30.01 in 5.6 mi SE 24.2 mph 35.7 mph N/A Rain Light Rain Showers
10:00 PM 61 °F 55 °F 74% 30.02 in - SE 19.6 mph - -  
10:00 PM 60.8 °F 55.4 °F 82% 30.01 in 5.6 mi SE 19.6 mph - N/A Rain Light Rain Showers
10:30 PM 60.8 °F 53.6 °F 77% 30.01 in 6.2 mi ESE 19.6 mph - N/A   Mostly Cloudy
11:00 PM 60.8 °F 53.6 °F 77% 30.01 in 6.2 mi ESE 21.9 mph - N/A   Mostly Cloudy
11:30 PM 60.8 °F 53.6 °F 77% 30.01 in 6.2 mi ESE 19.6 mph - N/A   Mostly Cloudy